| time (UTC) | temp C | wind direction | speed KPH | gust KPH | rain 1hr cm | rain 24hr cm | rain mn cm | humidity % | barometer mb |
| 20260831091545 | 21 | 0 | 0.0 | 0.0 | 0.00 | 0.66 | 0.00 | 87 | 1013.9 |
| 20260831090043 | 21 | 0 | 0.0 | 1.6 | 0.00 | 0.66 | 0.00 | 87 | 1013.9 |
| 20260831084544 | 21 | 0 | 0.0 | 1.6 | 0.00 | 0.74 | 0.00 | 87 | 1013.9 |
| 20260831083045 | 21 | 0 | 0.0 | 1.6 | 0.00 | 0.74 | 0.00 | 87 | 1013.7 |
| 20260831081543 | 21 | 119 | 0.0 | 1.6 | 0.00 | 0.74 | 0.00 | 87 | 1013.8 |
| 20260831080048 | 21 | 0 | 0.0 | 1.6 | 0.00 | 0.74 | 0.00 | 87 | 1013.8 |
| 20260831074545 | 21 | 0 | 0.0 | 1.6 | 0.00 | 0.79 | 0.00 | 87 | 1014.1 |
| 20260831073050 | 21 | 0 | 0.0 | 0.0 | 0.00 | 0.79 | 0.00 | 87 | 1014.4 |
| 20260831071542 | 21 | 0 | 0.0 | 0.0 | 0.00 | 0.79 | 0.00 | 87 | 1014.6 |
| 20260831070048 | 21 | 0 | 0.0 | 0.0 | 0.00 | 0.79 | 0.00 | 87 | 1014.8 |
| 20260831064544 | 21 | 0 | 0.0 | 0.0 | 0.00 | 0.79 | 0.00 | 87 | 1014.9 |
| 20260831063040 | 21 | 0 | 0.0 | 0.0 | 0.00 | 0.79 | 0.00 | 87 | 1015.1 |
| 20260831061542 | 21 | 0 | 0.0 | 1.6 | 0.00 | 0.79 | 0.00 | 87 | 1015.1 |
| 20260831060054 | 21 | 0 | 0.0 | 0.0 | 0.00 | 0.79 | 0.00 | 87 | 1015.2 |
| 20260831054544 | 22 | 0 | 0.0 | 1.6 | 0.00 | 0.79 | 0.00 | 86 | 1015.1 |
| 20260831053047 | 22 | 0 | 0.0 | 1.6 | 0.00 | 0.79 | 0.00 | 86 | 1015.1 |
| 20260831051552 | 22 | 0 | 0.0 | 0.0 | 0.00 | 0.79 | 0.00 | 85 | 1015.0 |
| 20260831050045 | 22 | 0 | 0.0 | 1.6 | 0.00 | 0.79 | 0.00 | 85 | 1015.1 |
| 20260831044551 | 22 | 0 | 1.6 | 8.0 | 0.00 | 0.79 | 0.79 | 85 | 1015.1 |
| 20260831043047 | 22 | 275 | 0.0 | 8.0 | 0.00 | 0.79 | 0.79 | 84 | 1014.9 |
| 20260831041635 | 22 | 274 | 3.2 | 9.7 | 0.00 | 0.79 | 0.79 | 84 | 1014.4 |
| 20260831040043 | 22 | 252 | 3.2 | 8.0 | 0.00 | 0.79 | 0.79 | 84 | 1014.5 |
| 20260831034545 | 22 | 212 | 3.2 | 8.0 | 0.00 | 0.79 | 0.79 | 85 | 1014.0 |
| 20260831033042 | 22 | 225 | 3.2 | 11.3 | 0.00 | 0.79 | 0.79 | 85 | 1013.8 |
| 20260831031545 | 22 | 202 | 3.2 | 9.7 | 0.00 | 0.79 | 0.79 | 85 | 1014.0 |
| 20260831030050 | 22 | 278 | 1.6 | 8.0 | 0.00 | 0.79 | 0.79 | 85 | 1014.6 |
| 20260831024602 | 22 | 245 | 3.2 | 12.9 | 0.00 | 0.79 | 0.79 | 85 | 1015.0 |
| 20260831023045 | 22 | 229 | 1.6 | 12.9 | 0.00 | 0.79 | 0.79 | 85 | 1014.9 |
| 20260831021549 | 22 | 216 | 3.2 | 9.7 | 0.00 | 0.79 | 0.79 | 85 | 1014.6 |
| 20260831020043 | 22 | 227 | 3.2 | 11.3 | 0.00 | 0.79 | 0.79 | 85 | 1014.8 |
| 20260831014549 | 22 | 234 | 4.8 | 14.5 | 0.00 | 0.79 | 0.79 | 85 | 1014.5 |
| 20260831013052 | 22 | 200 | 8.0 | 20.9 | 0.00 | 0.79 | 0.79 | 85 | 1014.7 |
| 20260831011551 | 22 | 274 | 4.8 | 19.3 | 0.00 | 0.79 | 0.79 | 86 | 1014.6 |
| 20260831010114 | 22 | 249 | 4.8 | 14.5 | 0.00 | 0.79 | 0.79 | 86 | 1014.2 |
| 20260831004544 | 22 | 182 | 3.2 | 16.1 | 0.00 | 0.79 | 0.79 | 86 | 1014.2 |
| 20260831003044 | 22 | 223 | 3.2 | 11.3 | 0.00 | 0.79 | 0.79 | 86 | 1013.8 |
| 20260831001548 | 22 | 259 | 4.8 | 14.5 | 0.00 | 0.79 | 0.79 | 85 | 1013.8 |
| 20260830234543 | 23 | 200 | 1.6 | 9.7 | 0.00 | 0.79 | 0.79 | 84 | 1013.7 |
| 20260830233051 | 23 | 226 | 1.6 | 11.3 | 0.00 | 0.79 | 0.79 | 84 | 1013.9 |
| 20260830231548 | 23 | 224 | 1.6 | 12.9 | 0.00 | 0.79 | 0.79 | 85 | 1013.9 |
| 20260830230053 | 23 | 224 | 1.6 | 11.3 | 0.00 | 0.79 | 0.79 | 85 | 1013.8 |
| 20260830224549 | 23 | 225 | 1.6 | 8.0 | 0.00 | 1.04 | 0.79 | 85 | 1013.8 |
| 20260830223125 | 23 | 138 | 4.8 | 9.7 | 0.00 | 1.04 | 0.79 | 84 | 1013.9 |
| 20260830221552 | 23 | 164 | 3.2 | 6.4 | 0.00 | 1.04 | 0.79 | 84 | 1014.1 |
| 20260830220046 | 23 | 217 | 3.2 | 9.7 | 0.00 | 1.04 | 0.79 | 83 | 1014.0 |
| 20260830214543 | 23 | 214 | 3.2 | 9.7 | 0.00 | 1.22 | 0.79 | 82 | 1013.9 |
| 20260830213043 | 23 | 136 | 4.8 | 17.7 | 0.00 | 1.22 | 0.79 | 81 | 1013.8 |
| 20260830211542 | 23 | 203 | 6.4 | 19.3 | 0.00 | 1.22 | 0.79 | 80 | 1013.9 |
| 20260830210045 | 23 | 243 | 8.0 | 20.9 | 0.00 | 1.22 | 0.79 | 79 | 1013.9 |
| 20260830204547 | 23 | 259 | 6.4 | 20.9 | 0.00 | 1.22 | 0.79 | 79 | 1013.8 |
| 20260830203045 | 24 | 247 | 9.7 | 25.7 | 0.00 | 1.22 | 0.79 | 76 | 1013.8 |
| 20260830201546 | 25 | 214 | 8.0 | 22.5 | 0.00 | 1.22 | 0.79 | 75 | 1013.9 |
| 20260830200043 | 25 | 242 | 8.0 | 32.2 | 0.00 | 1.22 | 0.79 | 72 | 1014.0 |
| 20260830194600 | 26 | 231 | 14.5 | 32.2 | 0.00 | 1.22 | 0.79 | 69 | 1014.1 |
| 20260830193059 | 26 | 256 | 16.1 | 35.4 | 0.00 | 1.22 | 0.79 | 68 | 1014.0 |
| 20260830191542 | 27 | 263 | 17.7 | 41.8 | 0.00 | 1.22 | 0.79 | 66 | 1014.0 |
| 20260830190043 | 27 | 236 | 16.1 | 38.6 | 0.00 | 1.22 | 0.79 | 64 | 1014.0 |
| 20260830184557 | 27 | 171 | 17.7 | 40.2 | 0.00 | 1.22 | 0.79 | 63 | 1013.9 |
| 20260830183046 | 28 | 216 | 14.5 | 29.0 | 0.00 | 1.22 | 0.79 | 62 | 1013.6 |
| 20260830181542 | 28 | 253 | 16.1 | 37.0 | 0.00 | 1.22 | 0.79 | 58 | 1013.4 |
| 20260830180042 | 30 | 259 | 8.0 | 20.9 | 0.00 | 1.22 | 0.79 | 57 | 1013.2 |
| 20260830174544 | 30 | 203 | 11.3 | 32.2 | 0.00 | 1.22 | 0.79 | 58 | 1013.0 |
| 20260830173044 | 30 | 271 | 9.7 | 27.4 | 0.00 | 1.22 | 0.79 | 59 | 1013.0 |
| 20260830171609 | 29 | 262 | 8.0 | 20.9 | 0.00 | 1.22 | 0.79 | 62 | 1013.1 |
| 20260830170048 | 28 | 197 | 8.0 | 24.1 | 0.00 | 1.22 | 0.79 | 62 | 1013.3 |
| 20260830164540 | 28 | 223 | 8.0 | 22.5 | 0.00 | 1.22 | 0.79 | 62 | 1013.3 |
| 20260830163050 | 27 | 262 | 8.0 | 24.1 | 0.00 | 1.22 | 0.79 | 64 | 1013.4 |
| 20260830161543 | 27 | 252 | 4.8 | 16.1 | 0.00 | 1.22 | 0.79 | 67 | 1013.5 |
| 20260830160043 | 27 | 217 | 6.4 | 12.9 | 0.00 | 1.22 | 0.79 | 67 | 1013.6 |
| 20260830154548 | 26 | 161 | 4.8 | 12.9 | 0.00 | 1.22 | 0.79 | 71 | 1013.9 |
| 20260830153047 | 26 | 181 | 4.8 | 11.3 | 0.00 | 1.22 | 0.79 | 72 | 1013.7 |
| 20260830151546 | 25 | 250 | 3.2 | 17.7 | 0.00 | 1.22 | 0.79 | 75 | 1013.7 |
| 20260830150044 | 25 | 217 | 1.6 | 11.3 | 0.00 | 1.22 | 0.79 | 77 | 1013.6 |
| 20260830144546 | 23 | 224 | 1.6 | 11.3 | 0.00 | 1.22 | 0.79 | 79 | 1013.5 |
| 20260830143046 | 23 | 220 | 4.8 | 12.9 | 0.00 | 1.22 | 0.79 | 80 | 1013.6 |
| 20260830141543 | 22 | 219 | 3.2 | 11.3 | 0.00 | 1.22 | 0.79 | 83 | 1013.9 |
| 20260830140042 | 22 | 206 | 3.2 | 12.9 | 0.00 | 1.22 | 0.79 | 84 | 1013.9 |
| 20260830134545 | 21 | 191 | 3.2 | 9.7 | 0.00 | 1.22 | 0.79 | 86 | 1013.9 |
| 20260830133043 | 20 | 192 | 3.2 | 14.5 | 0.00 | 1.22 | 0.79 | 87 | 1013.9 |
| 20260830131546 | 20 | 163 | 3.2 | 12.9 | 0.00 | 1.22 | 0.79 | 87 | 1014.0 |
| 20260830130056 | 20 | 173 | 3.2 | 8.0 | 0.03 | 1.22 | 0.79 | 87 | 1014.2 |
| 20260830124545 | 20 | 231 | 3.2 | 12.9 | 0.05 | 1.22 | 0.79 | 87 | 1014.2 |
| 20260830123043 | 19 | 193 | 4.8 | 14.5 | 0.08 | 1.22 | 0.79 | 87 | 1014.2 |
| 20260830121555 | 19 | 228 | 4.8 | 17.7 | 0.08 | 1.22 | 0.79 | 87 | 1014.4 |
| 20260830120047 | 20 | 255 | 4.8 | 14.5 | 0.05 | 1.19 | 0.76 | 87 | 1014.3 |
| 20260830114543 | 20 | 184 | 3.2 | 17.7 | 0.10 | 1.17 | 0.74 | 87 | 1014.1 |
| 20260830113100 | 19 | 264 | 4.8 | 9.7 | 0.18 | 1.14 | 0.71 | 87 | 1013.9 |
| 20260830111547 | 19 | 231 | 1.6 | 4.8 | 0.33 | 1.14 | 0.71 | 87 | 1013.9 |
| 20260830110057 | 19 | 217 | 1.6 | 6.4 | 0.36 | 1.14 | 0.71 | 87 | 1013.8 |
| 20260830104545 | 19 | 226 | 1.6 | 9.7 | 0.51 | 1.07 | 0.64 | 86 | 1013.8 |
| 20260830103044 | 20 | 243 | 8.0 | 22.5 | 0.41 | 0.97 | 0.53 | 85 | 1013.8 |
| 20260830101543 | 20 | 264 | 4.8 | 24.1 | 0.25 | 0.81 | 0.38 | 87 | 1013.4 |
| 20260830100058 | 20 | 103 | 4.8 | 16.1 | 0.20 | 0.76 | 0.33 | 87 | 1013.3 |
| 20260830094543 | 20 | 242 | 4.8 | 14.5 | 0.00 | 0.56 | 0.13 | 86 | 1013.8 |
| 20260830093049 | 20 | 217 | 3.2 | 8.0 | 0.00 | 0.56 | 0.13 | 85 | 1013.8 |